Flag for U.S.A. Weather past 2 weeks in Montgomery, Alabama, U.S.A.

Now
46 °F

Low clouds.


Feels Like: 44 °F
Forecast: 47 / 60 °F
Wind: 6 mph from East

Location: Maxwell Air Force Base / Montgomery

Current Time: Mar 1, 2015 at 5:35:22 AM

Latest Report: Mar 1, 2015 at 5:03 AM


Visibility: 10 mi

Pressure: 30.42 "Hg

Humidity: 93%

Dew point: 45 °F

Location of MontgomeryLocation

Historic Weather in Montgomery — Graph

°F

Montgomery temperature yesterday

Maximum temperature yesterday: 64 °F (at 2:48 PM)
Minimum temperature yesterday: 34 °F (at 1:58 AM)
Average temperature yesterday: 50 °F

Past Weeks' High & Low Weather Summary

 TemperatureHumidityPressure
High68 °F (Feb 22, 12:58 PM)100% (Feb 19, 6:58 AM)30.53 "Hg (Feb 19, 6:58 AM)
Low21 °F (Feb 20, 5:58 AM)18% (Feb 15, 1:58 PM)29.68 "Hg (Feb 25, 6:58 PM)
Average43 °F66%30.17 "Hg
* Reported Feb 14 4:58 AM — Mar 1 4:02 AM, Montgomery, Weather by CustomWeather, © 2015

Note: Actual official high and low records may vary slightly from our data, if they occured in-between our weather recording intervals... More about our weather records

Advertising

Montgomery weather history for previous 24 hours

 ConditionsComfort  
Time TempWeatherWind HumidityBarometerVisibility
4:02 AM
Sun, Mar 1
46 °FDrizzle. Low clouds.8 mph93%30.41 "Hg10 mi
3:58 AM47 °FLow clouds.8 mph94%30.42 "Hg10 mi
2:58 AM47 °FLow clouds.8 mph92%30.41 "Hg7 mi
12:58 AM49 °FOvercast.12 mph85%30.46 "Hg10 mi
11:58 PM
Sat, Feb 28
49 °FOvercast.7 mph84%30.47 "Hg10 mi
11:03 PM50 °FOvercast.6 mph82%30.46 "Hg10 mi
10:58 PM51 °FOvercast.6 mph79%30.47 "Hg10 mi
9:58 PM52 °FOvercast.13 mph75%30.48 "Hg10 mi
8:58 PM53 °FMostly cloudy.13 mph74%30.47 "Hg10 mi
7:58 PM56 °FOvercast.13 mph71%30.46 "Hg10 mi
6:58 PM58 °FOvercast.15 mph65%30.43 "Hg10 mi
5:58 PM60 °FOvercast.13 mph60%30.41 "Hg10 mi
4:58 PM61 °FOvercast.15 mph53%30.40 "Hg10 mi
3:58 PM63 °FMore clouds than sun.15 mph49%30.39 "Hg10 mi
2:58 PM64 °FOvercast.13 mph43%30.39 "Hg10 mi
2:48 PM64 °FOvercast.10 mph43%30.38 "Hg2 mi
1:58 PM63 °FScattered clouds.10 mph40%30.40 "Hg10 mi
12:58 PM61 °FOvercast.7 mph40%30.43 "Hg10 mi
11:58 AM60 °FPartly sunny.13 mph40%30.46 "Hg10 mi
10:58 AM54 °FOvercast.8 mph46%30.50 "Hg10 mi
9:58 AM50 °FOvercast.9 mph50%30.53 "Hg10 mi
8:58 AM44 °FOvercast.6 mph57%30.52 "Hg10 mi
7:58 AM39 °FOvercast.7 mph59%30.51 "Hg10 mi
6:58 AM37 °FOvercast.5 mph62%30.50 "Hg10 mi
5:58 AM36 °FOvercast.5 mph59%30.49 "Hg10 mi
Weather by CustomWeather, © 2015

See weather overviewHow to use our weather pages